Zanesville, OH

11:04 AM EDT on September 21, 2017 (GMT -0400)
Zanesville Municipal

Weather History for KZZV - May, 2014

Change the Weather History Date:

Thursday, May 15, 2014

  Actual Average Record
Temperature  
Mean Temperature 57 °F 60 °F  
Max Temperature 67 °F 72 °F 90 °F (1962)
Min Temperature 46 °F 49 °F 35 °F (1964)
Degree Days  
Heating Degree Days 8 6  
Month to date heating degree days 78 112  
Since 1 July heating degree days 5902 5469  
Cooling Degree Days 0 1  
Month to date cooling degree days 41 11  
Year to date cooling degree days 46 20  
Growing Degree Days 9 (Base 50)    
Moisture  
Dew Point 57 °F    
Average Humidity 80    
Maximum Humidity 93    
Minimum Humidity 66    
Precipitation  
Precipitation 0.47 in 0.14 in 1.68 in (1898)
Month to date precipitation 2.89 1.95  
Year to date precipitation 13.69 13.22  
Sea Level Pressure  
Sea Level Pressure 29.87 in    
Wind  
Wind Speed 9 mph (SSW)    
Max Wind Speed 20 mph    
Max Gust Speed 29 mph    
Visibility 6 miles    
Events Rain    
T = Trace of Precipitation, MM = Missing Value Source: NWS Daily Summary

Daily Weather History Graph

Daily Weather History Graph

Search for Another Location

Airport or City:

Trip Planner

Search our weather history database for the weather conditions in past years. The results will help you decide how hot, cold, wet, or windy it might be!

Date:

Astronomy

May. 15, 2014 Rise Set
Actual Time 6:12 AM EDT 8:35 PM EDT
Civil Twilight 5:41 AM EDT 9:06 PM EDT
Nautical Twilight 5:04 AM EDT 9:44 PM EDT
Astronomical Twilight 4:22 AM EDT 10:26 PM EDT
Moon 9:42 PM EDT (5/15) 6:58 AM EDT (5/15)
Length of Visible Light 15h 24m
Length of Day
14h 23m
Full, 99% of the Moon is Illuminated
May 15
Full
May 21
Last Quarter
May 28
New
Jun 5
First Quarter
Jun 13
Full

Hourly Weather History & Observations

Time (EDT) Temp. Dew Point Humidity Pressure Visibility Wind Dir Wind Speed Gust Speed Precip Events Conditions
12:53 AM 66.0 °F 63.0 °F 90% 29.88 in 9.0 mi Variable 4.6 mph - N/A   Clear
1:53 AM 64.9 °F 62.1 °F 90% 29.87 in 7.0 mi Calm Calm - N/A   Clear
2:37 AM 64.0 °F 62.1 °F 93% 29.88 in 2.0 mi Calm Calm - N/A   Clear
2:53 AM 64.9 °F 62.1 °F 90% 29.85 in 5.0 mi Calm Calm - N/A   Partly Cloudy
3:03 AM 64.0 °F 62.1 °F 93% 29.87 in 1.8 mi East 4.6 mph - N/A   Partly Cloudy
3:19 AM 64.0 °F 62.1 °F 93% 29.86 in 2.0 mi East 4.6 mph - N/A   Partly Cloudy
3:31 AM 66.0 °F 62.1 °F 87% 29.85 in 4.0 mi ESE 3.5 mph - N/A   Partly Cloudy
3:53 AM 64.0 °F 62.1 °F 93% 29.83 in 2.5 mi ESE 3.5 mph - N/A   Mostly Cloudy
4:01 AM 64.0 °F 62.1 °F 93% 29.85 in 3.0 mi ESE 3.5 mph - N/A   Mostly Cloudy
4:12 AM 64.0 °F 62.1 °F 93% 29.84 in 2.5 mi ESE 4.6 mph - N/A   Partly Cloudy
4:53 AM 64.0 °F 62.1 °F 93% 29.82 in 4.0 mi SSE 3.5 mph - N/A   Mostly Cloudy
5:53 AM 66.0 °F 61.0 °F 84% 29.81 in 8.0 mi South 11.5 mph 21.9 mph 0.08 in Rain Light Rain
6:53 AM 64.9 °F 61.0 °F 87% 29.81 in 5.0 mi South 12.7 mph 23.0 mph 0.04 in Rain Light Rain
7:53 AM 64.9 °F 61.0 °F 87% 29.81 in 7.0 mi SSE 10.4 mph - 0.02 in Rain Light Rain
8:33 AM 64.9 °F 61.0 °F 87% 29.82 in 2.0 mi SSE 13.8 mph - 0.03 in Rain Rain
8:46 AM 64.9 °F 62.1 °F 90% 29.81 in 3.0 mi SSE 9.2 mph - 0.04 in Rain Light Rain
8:53 AM 64.9 °F 62.1 °F 90% 29.81 in 4.0 mi South 12.7 mph - 0.04 in Rain Light Rain
9:20 AM 64.9 °F 62.1 °F 90% 29.81 in 2.5 mi South 10.4 mph - 0.01 in Rain Light Rain
9:53 AM 66.0 °F 62.1 °F 87% 29.79 in 6.0 mi SSE 11.5 mph - 0.01 in   Overcast
10:05 AM 66.0 °F 63.0 °F 90% 29.80 in 8.0 mi SSE 11.5 mph 19.6 mph N/A   Overcast
10:44 AM 66.9 °F 63.0 °F 87% 29.81 in 9.0 mi South 12.7 mph 21.9 mph N/A   Overcast
10:53 AM 66.9 °F 63.0 °F 87% 29.80 in 10.0 mi SSE 13.8 mph 20.7 mph N/A   Overcast
11:01 AM 66.9 °F 63.0 °F 87% 29.81 in 10.0 mi South 13.8 mph - N/A   Overcast
11:09 AM 66.9 °F 62.1 °F 84% 29.81 in 10.0 mi South 12.7 mph - N/A   Overcast
11:31 AM 66.0 °F 62.1 °F 87% 29.84 in 1.5 mi WSW 17.3 mph 25.3 mph 0.07 in Rain Heavy Rain
11:34 AM 62.1 °F 59.0 °F 90% 29.84 in 0.8 mi WSW 15.0 mph 26.5 mph 0.16 in Rain Heavy Rain
11:43 AM 61.0 °F 57.9 °F 90% 29.84 in 0.8 mi West 15.0 mph 21.9 mph 0.24 in Rain Rain
11:47 AM 60.8 °F 57.2 °F 88% 29.85 in 1.5 mi West 17.3 mph 23.0 mph 0.25 in Rain Rain
11:50 AM 60.8 °F 57.2 °F 88% 29.85 in 3.0 mi West 12.7 mph 23.0 mph 0.25 in Rain Light Rain
11:53 AM 61.0 °F 57.0 °F 87% 29.84 in 4.0 mi West 12.7 mph 23.0 mph 0.26 in Rain Light Rain
12:18 PM 60.1 °F 57.0 °F 90% 29.86 in 5.0 mi WSW 8.1 mph 16.1 mph 0.01 in Rain Light Rain
12:53 PM 60.1 °F 57.0 °F 90% 29.87 in 9.0 mi WSW 9.2 mph - 0.02 in   Overcast
1:08 PM 60.1 °F 57.0 °F 90% 29.88 in 10.0 mi WSW 5.8 mph - N/A   Overcast
1:23 PM 60.1 °F 55.9 °F 86% 29.88 in 10.0 mi West 9.2 mph - 0.00 in Rain Light Rain
1:37 PM 60.1 °F 55.0 °F 83% 29.87 in 10.0 mi WSW 8.1 mph - 0.00 in   Overcast
1:53 PM 60.1 °F 55.0 °F 83% 29.87 in 10.0 mi WSW 12.7 mph - 0.00 in   Overcast
2:13 PM 60.1 °F 55.0 °F 83% 29.88 in 10.0 mi West 10.4 mph - N/A   Overcast
3:53 PM 55.9 °F 48.9 °F 77% 29.91 in 10.0 mi WSW 10.4 mph 21.9 mph N/A   Overcast
4:53 PM 55.0 °F 46.9 °F 74% 29.93 in 10.0 mi WSW 12.7 mph 21.9 mph N/A   Overcast
5:34 PM 55.0 °F 46.0 °F 72% 29.94 in 10.0 mi West 10.4 mph - N/A   Overcast
5:53 PM 55.0 °F 46.0 °F 72% 29.94 in 10.0 mi WSW 11.5 mph - N/A   Overcast
6:53 PM 55.0 °F 45.0 °F 69% 29.96 in 10.0 mi West 11.5 mph 23.0 mph N/A   Overcast
7:53 PM 55.0 °F 44.1 °F 67% 29.98 in 10.0 mi WSW 10.4 mph - N/A   Overcast
8:53 PM 53.1 °F 44.1 °F 71% 29.99 in 10.0 mi West 8.1 mph - N/A   Overcast
9:53 PM 53.1 °F 45.0 °F 74% 30.00 in 10.0 mi West 6.9 mph - N/A   Overcast
10:53 PM 52.0 °F 44.1 °F 74% 30.00 in 10.0 mi WSW 6.9 mph - N/A   Overcast
11:11 PM 52.0 °F 44.1 °F 74% 30.02 in 10.0 mi West 10.4 mph - N/A   Overcast
11:53 PM 50.0 °F 39.9 °F 68% 30.03 in 10.0 mi West 9.2 mph - N/A   Overcast